ProjectID,Date,Electric Generation,Electric Utility Import,Facility Electric Load
,YYYY-MM-DD,kW,kW,kW
86,2012-02-01,0.0,,0.0
86,2012-02-02,0.0,,0.0
86,2012-02-03,0.0,,0.0
86,2012-02-04,0.0,,0.0
86,2012-02-05,0.0,,0.0
86,2012-02-06,0.0,,0.0
86,2012-02-07,0.0,,0.0
86,2012-02-08,0.0,,0.0
86,2012-02-09,0.0,,0.0
86,2012-02-10,0.0,,0.0
86,2012-02-11,0.0,,0.0
86,2012-02-12,0.0,,0.0
86,2012-02-13,0.0,,0.0
86,2012-02-14,0.0,,0.0
86,2012-02-15,0.0,,0.0
86,2012-02-16,0.0,,0.0
86,2012-02-17,0.0,,0.0
86,2012-02-18,0.0,,0.0
86,2012-02-19,0.0,,0.0
86,2012-02-20,0.0,,0.0
86,2012-02-21,0.0,,0.0
86,2012-02-22,0.0,,0.0
86,2012-02-23,0.0,,0.0
86,2012-02-24,0.0,,0.0
86,2012-02-25,0.0,,0.0
86,2012-02-26,0.0,,0.0
86,2012-02-27,0.0,,0.0
86,2012-02-28,0.0,,0.0
86,2012-02-29,21.611666666666665,,21.611666666666665
86,2012-03-01,62.445875,,62.445875
86,2012-03-02,61.24420833333334,,61.24420833333334
86,2012-03-03,61.36429166666667,,61.36429166666667
86,2012-03-04,61.86837499999999,,61.86837499999999
86,2012-03-05,59.965,,59.965
86,2012-03-06,61.39958333333333,,61.39958333333333
86,2012-03-07,60.460791666666665,,60.460791666666665
86,2012-03-08,57.28958333333333,,57.28958333333333
86,2012-03-09,56.72925,,56.72925
86,2012-03-10,61.218333333333334,,61.218333333333334
86,2012-03-11,60.34204166666667,,60.34204166666667
86,2012-03-12,55.82341666666667,,55.82341666666667
86,2012-03-13,57.27529166666667,,57.27529166666667
86,2012-03-14,57.126,,57.126
86,2012-03-15,57.34045833333334,,57.34045833333334
86,2012-03-16,59.000875,,59.000875
86,2012-03-17,59.06995833333334,,59.06995833333334
86,2012-03-18,57.301291666666664,,57.301291666666664
86,2012-03-19,56.10566666666667,,56.10566666666667
86,2012-03-20,52.047958333333334,,52.047958333333334
86,2012-03-21,51.34625,,51.34625
86,2012-03-22,57.73854166666666,,57.73854166666666
86,2012-03-23,58.03241666666667,,58.03241666666667
86,2012-03-24,57.06554166666667,,57.06554166666667
86,2012-03-25,20.04625,,20.04625
86,2012-03-26,42.97508333333334,,42.97508333333334
86,2012-03-27,57.396208333333334,,57.396208333333334
86,2012-03-28,56.26629166666667,,56.26629166666667
86,2012-03-29,55.9255,,55.9255
86,2012-03-30,55.701166666666666,,55.701166666666666
86,2012-03-31,58.79420833333333,,58.79420833333333
86,2012-04-01,59.122083333333336,,59.122083333333336
86,2012-04-02,55.60041666666667,,55.60041666666667
86,2012-04-03,56.91395833333333,,56.91395833333333
86,2012-04-04,55.065958333333334,,55.065958333333334
86,2012-04-05,56.693666666666665,,56.693666666666665
86,2012-04-06,59.54508333333334,,59.54508333333334
86,2012-04-07,60.00995833333334,,60.00995833333334
86,2012-04-08,59.81225,,59.81225
86,2012-04-09,55.916125,,55.916125
86,2012-04-10,55.47225,,55.47225
86,2012-04-11,55.845708333333334,,55.845708333333334
86,2012-04-12,57.772083333333335,,57.772083333333335
86,2012-04-13,51.13666666666666,,51.13666666666666
86,2012-04-14,58.35454166666667,,58.35454166666667
86,2012-04-15,58.662791666666664,,58.662791666666664
86,2012-04-16,62.51108333333334,,62.51108333333334
86,2012-04-17,62.84283333333334,,62.84283333333334
86,2012-04-18,61.810875,,61.810875
86,2012-04-19,58.95641666666666,,58.95641666666666
86,2012-04-20,58.677125,,58.677125
86,2012-04-21,61.275375,,61.275375
86,2012-04-22,60.935875,,60.935875
86,2012-04-23,31.110625,,31.110625
86,2012-04-24,55.771791666666665,,55.771791666666665
86,2012-04-25,55.96904166666667,,55.96904166666667
86,2012-04-26,56.284124999999996,,56.284124999999996
86,2012-04-27,51.08658333333333,,51.08658333333333
86,2012-04-28,59.75754166666667,,59.75754166666667
86,2012-04-29,59.27891666666667,,59.27891666666667
86,2012-04-30,54.5075,,54.5075
86,2012-05-01,54.588249999999995,,54.588249999999995
86,2012-05-02,55.169375,,55.169375
86,2012-05-03,56.79745833333333,,56.79745833333333
86,2012-05-04,55.599,,55.599
86,2012-05-05,33.603208333333335,,33.603208333333335
86,2012-05-06,0.0,,0.0
86,2012-05-07,0.3307083333333333,,0.3307083333333333
86,2012-05-08,29.816125,,29.816125
86,2012-05-09,56.68658333333334,,56.68658333333334
86,2012-05-10,57.106458333333336,,57.106458333333336
86,2012-05-11,49.998124999999995,,49.998124999999995
86,2012-05-12,59.106875,,59.106875
86,2012-05-13,61.75820833333333,,61.75820833333333
86,2012-05-14,62.338249999999995,,62.338249999999995
86,2012-05-15,60.525083333333335,,60.525083333333335
86,2012-05-16,60.693041666666666,,60.693041666666666
86,2012-05-17,61.036875,,61.036875
86,2012-05-18,61.99508333333333,,61.99508333333333
86,2012-05-19,60.4895,,60.4895
86,2012-05-20,61.84025,,61.84025
86,2012-05-21,62.26066666666667,,62.26066666666667
86,2012-05-22,61.326166666666666,,61.326166666666666
86,2012-05-23,25.670583333333337,,25.670583333333337
86,2012-05-24,0.27279166666666665,,0.27279166666666665
86,2012-05-25,13.040708333333333,,13.040708333333333
86,2012-05-26,4.750666666666667,,4.750666666666667
86,2012-05-27,0.0,,0.0
86,2012-05-28,0.0,,0.0
86,2012-05-29,1.7815833333333335,,1.7815833333333335
86,2012-05-30,18.157166666666665,,18.157166666666665
86,2012-05-31,33.57745833333333,,33.57745833333333
86,2012-06-01,36.923208333333335,,36.923208333333335
86,2012-06-02,62.917624999999994,,62.917624999999994
86,2012-06-03,62.90329166666667,,62.90329166666667
86,2012-06-04,62.271791666666665,,62.271791666666665
86,2012-06-05,57.98054166666666,,57.98054166666666
86,2012-06-06,60.584624999999996,,60.584624999999996
86,2012-06-07,55.029374999999995,,55.029374999999995
86,2012-06-08,61.22533333333333,,61.22533333333333
86,2012-06-09,62.85154166666666,,62.85154166666666
86,2012-06-10,62.68291666666667,,62.68291666666667
86,2012-06-11,62.927125,,62.927125
86,2012-06-12,62.903,,62.903
86,2012-06-13,62.938874999999996,,62.938874999999996
86,2012-06-14,63.005291666666665,,63.005291666666665
86,2012-06-15,62.85616666666667,,62.85616666666667
86,2012-06-16,61.65229166666666,,61.65229166666666
86,2012-06-17,62.855583333333335,,62.855583333333335
86,2012-06-18,62.91920833333333,,62.91920833333333
86,2012-06-19,62.912749999999996,,62.912749999999996
86,2012-06-20,60.57695833333333,,60.57695833333333
86,2012-06-21,59.81775,,59.81775
86,2012-06-22,60.62504166666667,,60.62504166666667
86,2012-06-23,62.773500000000006,,62.773500000000006
86,2012-06-24,61.67970833333334,,61.67970833333334
86,2012-06-25,61.66608333333334,,61.66608333333334
86,2012-06-26,63.08991666666666,,63.08991666666666
86,2012-06-27,62.94991666666667,,62.94991666666667
86,2012-06-28,62.62775,,62.62775
86,2012-06-29,50.654374999999995,,50.654374999999995
86,2012-06-30,38.099,,38.099
86,2012-07-01,61.465,,61.465
86,2012-07-02,62.55795833333334,,62.55795833333334
86,2012-07-03,62.60429166666666,,62.60429166666666
86,2012-07-04,61.58925,,61.58925
86,2012-07-05,58.35945833333333,,58.35945833333333
86,2012-07-06,60.580125,,60.580125
86,2012-07-07,59.361375,,59.361375
86,2012-07-08,61.43425,,61.43425
86,2012-07-09,33.66216666666667,,33.66216666666667
86,2012-07-10,0.0,,0.0
86,2012-07-11,36.57295833333333,,36.57295833333333
86,2012-07-12,62.899750000000004,,62.899750000000004
86,2012-07-13,62.94854166666667,,62.94854166666667
86,2012-07-14,62.838,,62.838
86,2012-07-15,61.599625,,61.599625
86,2012-07-16,62.458499999999994,,62.458499999999994
86,2012-07-17,60.64658333333333,,60.64658333333333
86,2012-07-18,45.349583333333335,,45.349583333333335
86,2012-07-19,22.097041666666666,,22.097041666666666
86,2012-07-20,63.171166666666664,,63.171166666666664
86,2012-07-21,62.95579166666667,,62.95579166666667
86,2012-07-22,62.93108333333333,,62.93108333333333
86,2012-07-23,62.893375,,62.893375
86,2012-07-24,21.882208333333335,,21.882208333333335
86,2012-07-25,41.38154166666667,,41.38154166666667
86,2012-07-26,62.44275,,62.44275
86,2012-07-27,62.816583333333334,,62.816583333333334
86,2012-07-28,49.47133333333333,,49.47133333333333
86,2012-07-29,63.022124999999996,,63.022124999999996
86,2012-07-30,63.0495,,63.0495
86,2012-07-31,62.90045833333334,,62.90045833333334
86,2012-08-01,63.08141666666666,,63.08141666666666
86,2012-08-02,62.93241666666666,,62.93241666666666
86,2012-08-03,62.99945833333334,,62.99945833333334
86,2012-08-04,60.23908333333333,,60.23908333333333
86,2012-08-05,49.51629166666667,,49.51629166666667
86,2012-08-06,39.60945833333333,,39.60945833333333
86,2012-08-07,62.853541666666665,,62.853541666666665
86,2012-08-08,62.875750000000004,,62.875750000000004
86,2012-08-09,62.621125,,62.621125
86,2012-08-10,57.208375,,57.208375
86,2012-08-11,49.879625000000004,,49.879625000000004
86,2012-08-12,53.255208333333336,,53.255208333333336
86,2012-08-13,30.649083333333333,,30.649083333333333
86,2012-08-14,21.95704166666667,,21.95704166666667
86,2012-08-15,63.17979166666667,,63.17979166666667
86,2012-08-16,58.65170833333334,,58.65170833333334
86,2012-08-17,60.354875,,60.354875
86,2012-08-18,58.79295833333333,,58.79295833333333
86,2012-08-19,62.99033333333333,,62.99033333333333
86,2012-08-20,62.96429166666667,,62.96429166666667
86,2012-08-21,63.00395833333334,,63.00395833333334
86,2012-08-22,62.96033333333333,,62.96033333333333
86,2012-08-23,62.96104166666667,,62.96104166666667
86,2012-08-24,54.58533333333333,,54.58533333333333
86,2012-08-25,60.69733333333334,,60.69733333333334
86,2012-08-26,62.90491666666667,,62.90491666666667
86,2012-08-27,58.321041666666666,,58.321041666666666
86,2012-08-28,42.120583333333336,,42.120583333333336
86,2012-08-29,61.57108333333333,,61.57108333333333
86,2012-08-30,62.880875,,62.880875
86,2012-08-31,62.847625,,62.847625
86,2012-09-01,62.965375,,62.965375
86,2012-09-02,61.918625,,61.918625
86,2012-09-03,63.007125,,63.007125
86,2012-09-04,63.001958333333334,,63.001958333333334
86,2012-09-05,26.283208333333334,,26.283208333333334
86,2012-09-06,43.215624999999996,,43.215624999999996
86,2012-09-07,62.993541666666665,,62.993541666666665
86,2012-09-08,62.94804166666666,,62.94804166666666
86,2012-09-09,62.95195833333333,,62.95195833333333
86,2012-09-10,63.15108333333333,,63.15108333333333
86,2012-09-11,11.095083333333333,,11.095083333333333
86,2012-09-12,41.58479166666667,,41.58479166666667
86,2012-09-13,55.7475,,55.7475
86,2012-09-14,63.17979166666667,,63.17979166666667
86,2012-09-15,63.091208333333334,,63.091208333333334
86,2012-09-16,63.08595833333334,,63.08595833333334
86,2012-09-17,63.02754166666667,,63.02754166666667
86,2012-09-18,62.992250000000006,,62.992250000000006
86,2012-09-19,27.06775,,27.06775
86,2012-09-20,0.0,,0.0
86,2012-09-21,0.0,,0.0
86,2012-09-22,0.0,,0.0
86,2012-09-23,0.0,,0.0
86,2012-09-24,38.44541666666667,,38.44541666666667
86,2012-09-25,62.082166666666666,,62.082166666666666
86,2012-09-26,63.04954166666667,,63.04954166666667
86,2012-09-27,63.08083333333334,,63.08083333333334
86,2012-09-28,63.19029166666667,,63.19029166666667
86,2012-09-29,63.113416666666666,,63.113416666666666
86,2012-09-30,63.05608333333333,,63.05608333333333
86,2012-10-01,60.599041666666665,,60.599041666666665
86,2012-10-02,63.01575,,63.01575
86,2012-10-03,63.04175,,63.04175
86,2012-10-04,63.217625,,63.217625
86,2012-10-05,63.019625,,63.019625
86,2012-10-06,63.12254166666667,,63.12254166666667
86,2012-10-07,62.81133333333333,,62.81133333333333
86,2012-10-08,59.20845833333333,,59.20845833333333
86,2012-10-09,60.297041666666665,,60.297041666666665
86,2012-10-10,59.77620833333333,,59.77620833333333
86,2012-10-11,58.237,,58.237
86,2012-10-12,59.781375,,59.781375
86,2012-10-13,61.820458333333335,,61.820458333333335
86,2012-10-14,60.480625,,60.480625
86,2012-10-15,61.23316666666667,,61.23316666666667
86,2012-10-16,58.290416666666665,,58.290416666666665
86,2012-10-17,58.800958333333334,,58.800958333333334
86,2012-10-18,58.613375,,58.613375
86,2012-10-19,52.914291666666664,,52.914291666666664
86,2012-10-20,58.886833333333335,,58.886833333333335
86,2012-10-21,62.47675,,62.47675
86,2012-10-22,59.70325,,59.70325
86,2012-10-23,59.923249999999996,,59.923249999999996
86,2012-10-24,57.54570833333333,,57.54570833333333
86,2012-10-25,58.616083333333336,,58.616083333333336
86,2012-10-26,59.50275,,59.50275
86,2012-10-27,61.81529166666667,,61.81529166666667
86,2012-10-28,60.48325,,60.48325
86,2012-10-29,45.85691666666667,,45.85691666666667
86,2012-10-30,35.35166666666667,,35.35166666666667
86,2012-10-31,60.291875000000005,,60.291875000000005
86,2012-11-01,59.838625,,59.838625
86,2012-11-02,61.58083333333334,,61.58083333333334
86,2012-11-03,61.20729166666666,,61.20729166666666
86,2012-11-04,61.20070833333333,,61.20070833333333
86,2012-11-05,61.89195833333333,,61.89195833333333
86,2012-11-06,63.18625,,63.18625
86,2012-11-07,62.804875,,62.804875
86,2012-11-08,38.51441666666667,,38.51441666666667
86,2012-11-09,62.81529166666667,,62.81529166666667
86,2012-11-10,62.60570833333333,,62.60570833333333
86,2012-11-11,60.83479166666667,,60.83479166666667
86,2012-11-12,61.04175,,61.04175
86,2012-11-13,59.800916666666666,,59.800916666666666
86,2012-11-14,61.47537500000001,,61.47537500000001
86,2012-11-15,60.800875,,60.800875
86,2012-11-16,61.35037500000001,,61.35037500000001
86,2012-11-17,62.711125,,62.711125
86,2012-11-18,62.70579166666667,,62.70579166666667
86,2012-11-19,61.7865,,61.7865
86,2012-11-20,61.211000000000006,,61.211000000000006
86,2012-11-21,51.76054166666666,,51.76054166666666
86,2012-11-22,58.03783333333333,,58.03783333333333
86,2012-11-23,59.364625,,59.364625
86,2012-11-24,4.341166666666667,,4.341166666666667
86,2012-11-25,0.0,,0.0
86,2012-11-26,20.793,,20.793
86,2012-11-27,62.66825,,62.66825
86,2012-11-28,61.88291666666667,,61.88291666666667
86,2012-11-29,62.54708333333334,,62.54708333333334
86,2012-11-30,62.757875000000006,,62.757875000000006
86,2012-12-01,63.07170833333333,,63.07170833333333
86,2012-12-02,63.162791666666664,,63.162791666666664
86,2012-12-03,56.352875000000004,,56.352875000000004
86,2012-12-04,59.816541666666666,,59.816541666666666
86,2012-12-05,59.224124999999994,,59.224124999999994
86,2012-12-06,29.72266666666667,,29.72266666666667
86,2012-12-07,41.488375,,41.488375
86,2012-12-08,63.207166666666666,,63.207166666666666
86,2012-12-09,63.118541666666665,,63.118541666666665
86,2012-12-10,63.080958333333335,,63.080958333333335
86,2012-12-11,63.001374999999996,,63.001374999999996
86,2012-12-12,62.96754166666667,,62.96754166666667
86,2012-12-13,62.993541666666665,,62.993541666666665
86,2012-12-14,62.949333333333335,,62.949333333333335
86,2012-12-15,37.014375,,37.014375
86,2012-12-16,37.47920833333333,,37.47920833333333
86,2012-12-17,62.73445833333333,,62.73445833333333
86,2012-12-18,32.644708333333334,,32.644708333333334
86,2012-12-19,62.04958333333334,,62.04958333333334
86,2012-12-20,62.806125,,62.806125
86,2012-12-21,62.618500000000004,,62.618500000000004
86,2012-12-22,63.07304166666666,,63.07304166666666
86,2012-12-23,45.918,,45.918
86,2012-12-24,41.55358333333333,,41.55358333333333
86,2012-12-25,62.952,,62.952
86,2012-12-26,63.00920833333333,,63.00920833333333
86,2012-12-27,62.920875,,62.920875
86,2012-12-28,63.04054166666666,,63.04054166666666
86,2012-12-29,63.067874999999994,,63.067874999999994
86,2012-12-30,63.0145,,63.0145
86,2012-12-31,63.12116666666666,,63.12116666666666
86,2013-01-01,62.90775,,62.90775
86,2013-01-02,62.931041666666665,,62.931041666666665
86,2013-01-03,63.058708333333335,,63.058708333333335
86,2013-01-04,62.978,,62.978
86,2013-01-05,63.056041666666665,,63.056041666666665
86,2013-01-06,63.007958333333335,,63.007958333333335
86,2013-01-07,62.820541666666664,,62.820541666666664
86,2013-01-08,62.85945833333333,,62.85945833333333
86,2013-01-09,60.86995833333333,,60.86995833333333
86,2013-01-10,61.75658333333333,,61.75658333333333
86,2013-01-11,54.61208333333334,,54.61208333333334
86,2013-01-12,62.37770833333334,,62.37770833333334
86,2013-01-13,62.039208333333335,,62.039208333333335
86,2013-01-14,59.605583333333335,,59.605583333333335
86,2013-01-15,60.45454166666667,,60.45454166666667
86,2013-01-16,62.47795833333333,,62.47795833333333
86,2013-01-17,61.56270833333334,,61.56270833333334
86,2013-01-18,62.28783333333333,,62.28783333333333
86,2013-01-19,63.109541666666665,,63.109541666666665
86,2013-01-20,63.082208333333334,,63.082208333333334
86,2013-01-21,62.330875,,62.330875
86,2013-01-22,63.03,,63.03
86,2013-01-23,62.88025,,62.88025
86,2013-01-24,36.09770833333334,,36.09770833333334
86,2013-01-25,62.010625000000005,,62.010625000000005
86,2013-01-26,62.86216666666667,,62.86216666666667
86,2013-01-27,11.571625,,11.571625
86,2013-01-28,0.0,,0.0
86,2013-01-29,24.14725,,24.14725
86,2013-01-30,62.730625,,62.730625
86,2013-01-31,62.71754166666667,,62.71754166666667
86,2013-02-01,62.02741666666666,,62.02741666666666
86,2013-02-02,62.86216666666667,,62.86216666666667
86,2013-02-03,62.88941666666667,,62.88941666666667
86,2013-02-04,37.81516666666666,,37.81516666666666
86,2013-02-05,1.3880416666666668,,1.3880416666666668
86,2013-02-06,1.5286666666666668,,1.5286666666666668
86,2013-02-07,20.207083333333333,,20.207083333333333
86,2013-02-08,63.053583333333336,,63.053583333333336
86,2013-02-09,62.881541666666664,,62.881541666666664
86,2013-02-10,63.05083333333334,,63.05083333333334
86,2013-02-11,62.95195833333333,,62.95195833333333
86,2013-02-12,62.78658333333333,,62.78658333333333
86,2013-02-13,57.101708333333335,,57.101708333333335
86,2013-02-14,62.817874999999994,,62.817874999999994
86,2013-02-15,61.838625,,61.838625
86,2013-02-16,61.98979166666667,,61.98979166666667
86,2013-02-17,63.03266666666667,,63.03266666666667
86,2013-02-18,62.91545833333333,,62.91545833333333
86,2013-02-19,63.057375,,63.057375
86,2013-02-20,62.98320833333333,,62.98320833333333
86,2013-02-21,62.91166666666667,,62.91166666666667
86,2013-02-22,63.049708333333335,,63.049708333333335
86,2013-02-23,63.02741666666666,,63.02741666666666
86,2013-02-24,62.974041666666665,,62.974041666666665
86,2013-02-25,61.03916666666667,,61.03916666666667
86,2013-02-26,60.39725000000001,,60.39725000000001
86,2013-02-27,61.3765,,61.3765
86,2013-02-28,60.280125,,60.280125
86,2013-03-01,59.09258333333333,,59.09258333333333
86,2013-03-02,62.93241666666666,,62.93241666666666
86,2013-03-03,4.020833333333333,,4.020833333333333
86,2013-03-04,0.0,,0.0
86,2013-03-05,23.074250000000003,,23.074250000000003
86,2013-03-06,62.772333333333336,,62.772333333333336
86,2013-03-07,62.730625,,62.730625
86,2013-03-08,23.871166666666667,,23.871166666666667
86,2013-03-09,0.0,,0.0
86,2013-03-10,0.0,,0.0
86,2013-03-11,33.468875000000004,,33.468875000000004
86,2013-03-12,55.6355,,55.6355
86,2013-03-13,60.390791666666665,,60.390791666666665
86,2013-03-14,62.1695,,62.1695
86,2013-03-15,62.64608333333334,,62.64608333333334
86,2013-03-16,62.48445833333333,,62.48445833333333
86,2013-03-17,62.672041666666665,,62.672041666666665
86,2013-03-18,62.68758333333333,,62.68758333333333
86,2013-03-19,51.58083333333334,,51.58083333333334
86,2013-03-20,60.78391666666667,,60.78391666666667
86,2013-03-21,60.172,,60.172
86,2013-03-22,59.934958333333334,,59.934958333333334
86,2013-03-23,59.523583333333335,,59.523583333333335
86,2013-03-24,56.001374999999996,,56.001374999999996
86,2013-03-25,33.681041666666665,,33.681041666666665
86,2013-03-26,62.075625,,62.075625
86,2013-03-27,61.22020833333334,,61.22020833333334
86,2013-03-28,61.51458333333333,,61.51458333333333
86,2013-03-29,61.677416666666666,,61.677416666666666
86,2013-03-30,62.35429166666666,,62.35429166666666
86,2013-03-31,60.75025,,60.75025
86,2013-04-01,60.26066666666667,,60.26066666666667
86,2013-04-02,61.510625000000005,,61.510625000000005
86,2013-04-03,61.083666666666666,,61.083666666666666
86,2013-04-04,60.635625000000005,,60.635625000000005
86,2013-04-05,59.90654166666667,,59.90654166666667
86,2013-04-06,60.77633333333333,,60.77633333333333
86,2013-04-07,61.216375,,61.216375
86,2013-04-08,58.72420833333334,,58.72420833333334
86,2013-04-09,53.46641666666667,,53.46641666666667
86,2013-04-10,61.239875000000005,,61.239875000000005
86,2013-04-11,58.867333333333335,,58.867333333333335
86,2013-04-12,58.15904166666667,,58.15904166666667
86,2013-04-13,59.12779166666667,,59.12779166666667
86,2013-04-14,60.518499999999996,,60.518499999999996
86,2013-04-15,58.320541666666664,,58.320541666666664
86,2013-04-16,56.127916666666664,,56.127916666666664
86,2013-04-17,57.312875,,57.312875
86,2013-04-18,56.148625,,56.148625
86,2013-04-19,58.565374999999996,,58.565374999999996
86,2013-04-20,58.6695,,58.6695
86,2013-04-21,58.39604166666667,,58.39604166666667
86,2013-04-22,54.703375,,54.703375
86,2013-04-23,57.409166666666664,,57.409166666666664
86,2013-04-24,56.10441666666667,,56.10441666666667
86,2013-04-25,56.71383333333333,,56.71383333333333
86,2013-04-26,57.362291666666664,,57.362291666666664
86,2013-04-27,31.447999999999997,,31.447999999999997
86,2013-04-28,0.0,,0.0
86,2013-04-29,0.0,,0.0
86,2013-04-30,34.90375,,34.90375
86,2013-05-01,55.96641666666667,,55.96641666666667
86,2013-05-02,56.71904166666667,,56.71904166666667
86,2013-05-03,55.82575,,55.82575
86,2013-05-04,57.21379166666667,,57.21379166666667
86,2013-05-05,56.377833333333335,,56.377833333333335
86,2013-05-06,55.411624999999994,,55.411624999999994
86,2013-05-07,53.90129166666667,,53.90129166666667
86,2013-05-08,55.992375,,55.992375
86,2013-05-09,54.69558333333333,,54.69558333333333
86,2013-05-10,56.22933333333333,,56.22933333333333
86,2013-05-11,56.968875,,56.968875
86,2013-05-12,57.258041666666664,,57.258041666666664
86,2013-05-13,55.29454166666667,,55.29454166666667
86,2013-05-14,48.555,,48.555
86,2013-05-15,52.78666666666667,,52.78666666666667
86,2013-05-16,55.91954166666667,,55.91954166666667
86,2013-05-17,56.893499999999996,,56.893499999999996
86,2013-05-18,57.403875,,57.403875
86,2013-05-19,57.023666666666664,,57.023666666666664
86,2013-05-20,55.84141666666667,,55.84141666666667
86,2013-05-21,57.080958333333335,,57.080958333333335
86,2013-05-22,56.88825,,56.88825
86,2013-05-23,56.768499999999996,,56.768499999999996
86,2013-05-24,57.03933333333333,,57.03933333333333
86,2013-05-25,56.51329166666667,,56.51329166666667
86,2013-05-26,56.71641666666667,,56.71641666666667
86,2013-05-27,55.22945833333333,,55.22945833333333
86,2013-05-28,56.237249999999996,,56.237249999999996
86,2013-05-29,28.955833333333334,,28.955833333333334
86,2013-05-30,20.619916666666665,,20.619916666666665
86,2013-05-31,57.52895833333333,,57.52895833333333
86,2013-06-01,57.112208333333335,,57.112208333333335
86,2013-06-02,56.055,,56.055
86,2013-06-03,55.71645833333333,,55.71645833333333
86,2013-06-04,57.34916666666667,,57.34916666666667
86,2013-06-05,55.995000000000005,,55.995000000000005
86,2013-06-06,55.289291666666664,,55.289291666666664
86,2013-06-07,53.76329166666667,,53.76329166666667
86,2013-06-08,50.54195833333333,,50.54195833333333
86,2013-06-09,52.46383333333333,,52.46383333333333
86,2013-06-10,52.13825,,52.13825
86,2013-06-11,51.565374999999996,,51.565374999999996
86,2013-06-12,52.21125,,52.21125
86,2013-06-13,51.52370833333333,,51.52370833333333
86,2013-06-14,51.71120833333333,,51.71120833333333
86,2013-06-15,51.643499999999996,,51.643499999999996
86,2013-06-16,51.06279166666667,,51.06279166666667
86,2013-06-17,51.971666666666664,,51.971666666666664
86,2013-06-18,53.64875,,53.64875
86,2013-06-19,53.19825,,53.19825
86,2013-06-20,53.00808333333333,,53.00808333333333
86,2013-06-21,36.25279166666667,,36.25279166666667
86,2013-06-22,54.60970833333334,,54.60970833333334
86,2013-06-23,52.70858333333334,,52.70858333333334
86,2013-06-24,50.96120833333333,,50.96120833333333
86,2013-06-25,45.828375,,45.828375
86,2013-06-26,50.041875000000005,,50.041875000000005
86,2013-06-27,49.966541666666664,,49.966541666666664
86,2013-06-28,49.956041666666664,,49.956041666666664
86,2013-06-29,48.41441666666666,,48.41441666666666
86,2013-06-30,0.0,,0.0